Canyon City, OR

1:07 PM PDT on August 28, 2016 (GMT -0700)
Grant County Regional

Weather History for KGCD - January, 2014

Change the Weather History Date:

Thursday, January 16, 2014

  Actual Average (KBNO) Record (KBNO)
Temperature  
Mean Temperature 40 °F 25 °F  
Max Temperature 52 °F 35 °F 50 °F (2014)
Min Temperature 29 °F 15 °F -18 °F (1987)
Degree Days  
Heating Degree Days 24 40  
Month to date heating degree days 651  
Since 1 July heating degree days 3918  
Cooling Degree Days 0 0  
Month to date cooling degree days 0  
Year to date cooling degree days 0  
Moisture  
Dew Point 19 °F    
Average Humidity 46    
Maximum Humidity 60    
Minimum Humidity 24    
Precipitation  
Precipitation 0.00 in 0.04 in 0.56 in (1970)
Month to date precipitation 0.68  
Year to date precipitation 0.68  
Sea Level Pressure  
Sea Level Pressure 30.46 in    
Wind  
Wind Speed 6 mph (ESE)    
Max Wind Speed 10 mph    
Max Gust Speed -    
Visibility 10 miles    
Events      
T = Trace of Precipitation, MM = Missing Value Source: NWS Daily Summary

Daily Weather History Graph

Daily Weather History Graph

Search for Another Location

Airport or City:

Trip Planner

Search our weather history database for the weather conditions in past years. The results will help you decide how hot, cold, wet, or windy it might be!

Date:

Astronomy

Jan. 16, 2014 Rise Set
Actual Time 7:27 AM PST 4:43 PM PST
Civil Twilight 6:55 AM PST 5:16 PM PST
Nautical Twilight 6:19 AM PST 5:51 PM PST
Astronomical Twilight 5:45 AM PST 6:26 PM PST
Moon 5:44 PM PST (1/16) 7:20 AM PST (1/16)
Length of Visible Light 10h 20m
Length of Day
9h 15m
Full, 100% of the Moon is Illuminated
Jan 16
Full
Jan 23
Last Quarter
Jan 30
New
Feb 6
First Quarter
Feb 14
Full

Hourly Weather History & Observations

Time (PST) Temp. Windchill Dew Point Humidity Pressure Visibility Wind Dir Wind Speed Gust Speed Precip Events Conditions
12:15 AM 32.4 °F 24.0 °F 19.2 °F 58% 30.50 in 10.0 mi SE 10.4 mph - N/A   Clear
12:35 AM 32.2 °F 24.4 °F 19.4 °F 59% 30.50 in 10.0 mi ESE 9.2 mph - N/A   Clear
12:55 AM 33.8 °F 27.7 °F 18.3 °F 53% 30.50 in 10.0 mi SE 6.9 mph - N/A   Clear
1:15 AM 32.0 °F 26.4 °F 18.3 °F 57% 30.50 in 10.0 mi SE 5.8 mph - N/A   Clear
1:35 AM 31.6 °F 23.7 °F 18.9 °F 59% 30.50 in 10.0 mi SE 9.2 mph - N/A   Clear
1:55 AM 32.7 °F 27.3 °F 18.0 °F 55% 30.50 in 10.0 mi ESE 5.8 mph - N/A   Clear
2:15 AM 30.9 °F 25.2 °F 18.3 °F 60% 30.50 in 10.0 mi ESE 5.8 mph - N/A   Clear
2:35 AM 32.7 °F 26.4 °F 17.8 °F 54% 30.50 in 10.0 mi SE 6.9 mph - N/A   Clear
2:55 AM 33.8 °F 27.0 °F 17.6 °F 52% 30.50 in 10.0 mi SSE 8.1 mph - N/A   Clear
3:15 AM 33.4 °F 26.6 °F 17.8 °F 53% 30.50 in 10.0 mi SE 8.1 mph - N/A   Clear
3:35 AM 32.2 °F 25.0 °F 17.6 °F 55% 30.50 in 10.0 mi SE 8.1 mph - N/A   Clear
3:55 AM 33.1 °F 26.1 °F 17.6 °F 53% 30.49 in 10.0 mi SE 8.1 mph - N/A   Clear
4:15 AM 32.2 °F 25.0 °F 17.4 °F 55% 30.49 in 10.0 mi SE 8.1 mph - N/A   Clear
4:35 AM 32.0 °F 24.2 °F 17.6 °F 55% 30.50 in 10.0 mi SE 9.2 mph - N/A   Clear
4:55 AM 31.5 °F 24.2 °F 17.6 °F 57% 30.50 in 10.0 mi ESE 8.1 mph - N/A   Clear
5:15 AM 30.9 °F 23.5 °F 17.8 °F 58% 30.50 in 10.0 mi SE 8.1 mph - N/A   Clear
5:35 AM 29.8 °F 23.9 °F 17.6 °F 60% 30.50 in 10.0 mi ESE 5.8 mph - N/A   Clear
5:55 AM 31.1 °F 23.1 °F 17.4 °F 57% 30.50 in 10.0 mi ESE 9.2 mph - N/A   Clear
6:15 AM 29.8 °F 21.5 °F 17.6 °F 60% 30.50 in 10.0 mi ESE 9.2 mph - N/A   Clear
6:35 AM 30.9 °F 22.8 °F 17.6 °F 58% 30.50 in 10.0 mi ESE 9.2 mph - N/A   Clear
6:55 AM 29.8 °F 22.2 °F 17.6 °F 60% 30.50 in 10.0 mi East 8.1 mph - N/A   Clear
7:15 AM 31.1 °F 22.4 °F 17.2 °F 57% 30.50 in 10.0 mi ESE 10.4 mph - N/A   Clear
7:35 AM 30.9 °F 23.5 °F 16.9 °F 56% 30.50 in 10.0 mi ESE 8.1 mph - N/A   Clear
7:55 AM 30.2 °F 23.4 °F 16.9 °F 58% 30.51 in 10.0 mi ESE 6.9 mph - N/A   Clear
8:15 AM 31.3 °F 23.3 °F 16.7 °F 55% 30.51 in 10.0 mi SE 9.2 mph - N/A   Clear
8:35 AM 33.8 °F 28.6 °F 17.2 °F 51% 30.51 in 10.0 mi ESE 5.8 mph - N/A   Clear
8:55 AM 36.0 °F 29.6 °F 16.5 °F 45% 30.52 in 10.0 mi SE 8.1 mph - N/A   Clear
9:15 AM 36.7 °F - 18.1 °F 47% 30.52 in 10.0 mi Calm Calm - N/A   Clear
9:35 AM 36.3 °F - 18.3 °F 48% 30.52 in 10.0 mi Calm Calm - N/A   Clear
9:55 AM 38.1 °F 34.6 °F 18.3 °F 45% 30.51 in 10.0 mi ESE 4.6 mph - N/A   Clear
10:15 AM 40.3 °F 37.1 °F 18.5 °F 42% 30.51 in 10.0 mi East 4.6 mph - N/A   Clear
10:35 AM 40.5 °F 36.5 °F 18.3 °F 41% 30.51 in 10.0 mi ENE 5.8 mph - N/A   Clear
10:55 AM 41.4 °F 39.4 °F 17.8 °F 39% 30.50 in 10.0 mi East 3.5 mph - N/A   Clear
11:15 AM 43.3 °F 41.7 °F 17.8 °F 36% 30.49 in 10.0 mi East 3.5 mph - N/A   Clear
11:35 AM 44.2 °F - 15.8 °F 32% 30.48 in 10.0 mi Calm Calm - N/A   Clear
11:55 AM 45.7 °F 44.4 °F 19.2 °F 35% 30.47 in 10.0 mi NW 3.5 mph - N/A   Clear
12:35 PM 46.6 °F - 16.3 °F 30% 30.45 in 10.0 mi Calm Calm - N/A   Clear
12:55 PM 47.5 °F - 16.9 °F 30% 30.44 in 10.0 mi Calm Calm - N/A   Clear
1:15 PM 48.6 °F - 17.4 °F 29% 30.43 in 10.0 mi Calm Calm - N/A   Clear
1:35 PM 49.3 °F - 18.7 °F 30% 30.42 in 10.0 mi Calm Calm - N/A   Clear
1:55 PM 51.1 °F - 19.2 °F 29% 30.41 in 10.0 mi Calm Calm - N/A   Clear
2:15 PM 51.6 °F - 17.2 °F 26% 30.41 in 10.0 mi Calm Calm - N/A   Clear
2:35 PM 51.8 °F - 16.0 °F 24% 30.40 in 10.0 mi Calm Calm - N/A   Clear
2:55 PM 52.0 °F - 17.1 °F 25% 30.40 in 10.0 mi Calm Calm - N/A   Clear
3:15 PM 52.0 °F - 16.5 °F 25% 30.41 in 10.0 mi Calm Calm - N/A   Clear
3:35 PM 52.0 °F - 18.9 °F 27% 30.40 in 10.0 mi Calm Calm - N/A   Clear
3:55 PM 50.5 °F - 19.6 °F 30% 30.41 in 10.0 mi Calm Calm - N/A   Clear
4:15 PM 48.2 °F - 21.9 °F 36% 30.41 in 10.0 mi Calm Calm - N/A   Clear
4:35 PM 46.4 °F - 21.7 °F 38% 30.41 in 10.0 mi Calm Calm - N/A   Clear
4:55 PM 45.3 °F - 22.1 °F 40% 30.41 in 10.0 mi Calm Calm - N/A   Clear
5:15 PM 45.7 °F - 21.6 °F 38% 30.41 in 10.0 mi Calm Calm - N/A   Clear
5:35 PM 43.3 °F 41.7 °F 20.1 °F 40% 30.41 in 10.0 mi North 3.5 mph - N/A   Clear
5:55 PM 38.8 °F - 22.1 °F 51% 30.41 in 10.0 mi Calm Calm - N/A   Clear
6:15 PM 42.8 °F - 21.7 °F 43% 30.41 in 10.0 mi Calm Calm - N/A   Clear
6:35 PM 41.5 °F - 21.6 °F 45% 30.41 in 10.0 mi Calm Calm - N/A   Clear
6:55 PM 37.6 °F 32.3 °F 22.1 °F 54% 30.41 in 10.0 mi ESE 6.9 mph - N/A   Clear
7:15 PM 39.2 °F 33.6 °F 20.5 °F 47% 30.40 in 10.0 mi ESE 8.1 mph - N/A   Clear
7:35 PM 38.3 °F 32.5 °F 20.8 °F 50% 30.41 in 10.0 mi SE 8.1 mph - N/A   Clear
7:55 PM 39.2 °F 33.6 °F 20.1 °F 46% 30.41 in 10.0 mi SE 8.1 mph - N/A   Clear
8:15 PM 38.3 °F 32.5 °F 19.4 °F 47% 30.41 in 10.0 mi SE 8.1 mph - N/A   Clear
8:35 PM 36.9 °F 30.7 °F 19.9 °F 50% 30.41 in 10.0 mi ESE 8.1 mph - N/A   Clear
8:55 PM 37.6 °F 31.6 °F 19.4 °F 48% 30.41 in 10.0 mi SE 8.1 mph - N/A   Clear
9:15 PM 37.9 °F 31.5 °F 19.2 °F 47% 30.41 in 10.0 mi SE 9.2 mph - N/A   Clear
9:35 PM 38.5 °F 32.1 °F 18.9 °F 45% 30.41 in 10.0 mi SE 9.2 mph - N/A   Clear
9:55 PM 38.3 °F 31.9 °F 18.9 °F 46% 30.41 in 10.0 mi SE 9.2 mph - N/A   Clear
10:15 PM 37.9 °F 31.5 °F 19.4 °F 47% 30.40 in 10.0 mi ESE 9.2 mph - N/A   Clear
10:35 PM 36.9 °F 30.7 °F 19.8 °F 50% 30.41 in 10.0 mi ESE 8.1 mph - N/A   Clear
10:55 PM 36.0 °F 30.3 °F 19.4 °F 51% 30.40 in 10.0 mi SE 6.9 mph - N/A   Clear